Quinhagak|Kwinhagak Airport, AK

10:56 PM AKST on November 20, 2019 (GMT -0900)
Quinhagak

Weather History for PAQH - October, 2019

Change the Weather History Date:

Tuesday, October 15, 2019

  Actual Average (WUND) Record (WUND)
Temperature  
Mean Temperature 40 °F -  
Max Temperature 46 °F - - (-1)
Min Temperature 37 °F - - (-1)
Degree Days  
Heating Degree Days 24    
Moisture  
Dew Point 37 °F    
Average Humidity 86    
Maximum Humidity 96    
Minimum Humidity 68    
Precipitation  
Precipitation 0.01 in - - ()
Sea Level Pressure  
Sea Level Pressure 29.26 in    
Wind  
Wind Speed 10 mph ()    
Max Wind Speed 16 mph    
Max Gust Speed -    
Visibility 9.8 miles    
Events Rain    
Averages and records for this station are not official NWS values.
T = Trace of Precipitation, MM = Missing Value Source: Averaged Metar Reports

Daily Weather History Graph

Daily Weather History Graph

Search for Another Location

Airport or City:

Astronomy

Oct. 15, 2019 Rise Set
Actual Time 9:26 AM AKDT 7:38 PM AKDT
Civil Twilight 8:44 AM AKDT 8:20 PM AKDT
Nautical Twilight 7:56 AM AKDT 9:08 PM AKDT
Astronomical Twilight 7:08 AM AKDT 9:56 PM AKDT
Moon 8:42 PM AKDT (10/15) 11:25 AM AKDT (10/15)
Length of Visible Light 11h 36m
Length of Day
10h 12m
Waning Gibbous, 96% of the Moon is Illuminated
Oct 15
Waning Gibbous
Oct 21
Last Quarter
Oct 27
New
Nov 4
First Quarter
Nov 12
Full

Hourly Weather History & Observations

Time (AKDT) Temp. Windchill Dew Point Humidity Pressure Visibility Wind Dir Wind Speed Gust Speed Precip Events Conditions
12:56 AM 43.0 °F 38.2 °F 34.0 °F 71% 29.21 in 10.0 mi East 8.1 mph - 0.00 in Rain Light Rain
1:56 AM 43.0 °F 36.4 °F 33.1 °F 68% 29.21 in 10.0 mi East 12.7 mph - 0.00 in   Overcast
2:56 AM 43.0 °F 37.2 °F 34.0 °F 71% 29.20 in 10.0 mi East 10.4 mph - 0.00 in Rain Light Rain
3:56 AM 42.1 °F 35.2 °F 34.0 °F 73% 29.19 in 10.0 mi East 12.7 mph - 0.00 in   Overcast
4:56 AM 42.1 °F 34.2 °F 34.0 °F 73% 29.19 in 10.0 mi East 16.1 mph - N/A   Overcast
7:56 AM 39.9 °F 33.4 °F 36.0 °F 86% 29.20 in 10.0 mi ESE 10.4 mph - 0.00 in Rain Light Rain
8:06 AM 39.2 °F 32.0 °F 35.6 °F 87% 29.20 in 10.0 mi East 11.5 mph - 0.00 in Rain Light Rain
8:56 AM 39.0 °F 33.4 °F 36.0 °F 89% 29.21 in 10.0 mi East 8.1 mph - 0.00 in Rain Light Rain
11:23 AM 41.0 °F 36.4 °F 37.4 °F 87% 29.24 in 10.0 mi SE 6.9 mph - 0.00 in   Overcast
11:32 AM 41.0 °F 35.8 °F 39.2 °F 93% 29.24 in 10.0 mi SE 8.1 mph - 0.00 in Rain Light Rain
12:08 PM 42.8 °F 37.0 °F 39.2 °F 87% 29.25 in 10.0 mi SSE 10.4 mph - 0.00 in   Overcast
12:36 PM 42.8 °F 36.2 °F 39.2 °F 87% 29.25 in 10.0 mi SSE 12.7 mph - 0.00 in   Overcast
12:56 PM 43.0 °F 35.7 °F 39.0 °F 86% 29.25 in 10.0 mi SSE 15.0 mph - 0.00 in   Overcast
1:47 PM 42.8 °F 35.4 °F 39.2 °F 87% 29.27 in 10.0 mi SSE 15.0 mph - 0.00 in Rain Light Rain
1:56 PM 43.0 °F 35.7 °F 39.9 °F 89% 29.27 in 10.0 mi SSE 15.0 mph - 0.00 in   Mostly Cloudy
2:36 PM 42.8 °F 36.2 °F 39.2 °F 87% 29.27 in 5.0 mi South 12.7 mph - 0.01 in Rain Rain
3:48 PM 44.6 °F 40.2 °F 39.2 °F 81% 29.29 in 10.0 mi SW 8.1 mph - N/A   Overcast
3:56 PM 44.1 °F 39.0 °F 39.0 °F 82% 29.29 in 10.0 mi WSW 9.2 mph - N/A   Mostly Cloudy
4:56 PM 43.0 °F 35.4 °F 39.0 °F 86% 29.30 in 10.0 mi SW 16.1 mph - N/A   Mostly Cloudy
5:56 PM 43.0 °F 37.7 °F 39.0 °F 86% 29.30 in 10.0 mi South 9.2 mph - 0.00 in   Overcast
6:56 PM 41.0 °F 35.8 °F 39.0 °F 93% 29.31 in 10.0 mi SSE 8.1 mph - 0.01 in Rain Light Rain
7:34 PM 41.0 °F 36.4 °F 39.2 °F 93% 29.31 in 8.0 mi SE 6.9 mph - 0.00 in Rain Light Rain
7:56 PM 41.0 °F 37.1 °F 39.9 °F 96% 29.32 in 10.0 mi South 5.8 mph - 0.00 in   Overcast
8:28 PM 41.0 °F 34.7 °F 39.2 °F 93% 29.32 in 10.0 mi SW 10.4 mph - 0.00 in Rain Light Rain
8:56 PM 39.9 °F 35.1 °F 37.9 °F 93% 29.31 in 10.0 mi WSW 6.9 mph - 0.00 in   Overcast
9:56 PM 37.9 °F 31.5 °F 36.0 °F 93% 29.31 in 10.0 mi SE 9.2 mph - N/A   Overcast
10:56 PM 37.0 °F 30.4 °F 36.0 °F 96% 29.30 in 10.0 mi SE 9.2 mph - N/A   Partly Cloudy
11:56 PM 37.9 °F 31.5 °F 35.1 °F 89% 29.29 in 10.0 mi SE 9.2 mph - 0.00 in   Overcast